{"data":{"norad_id":35681,"intl_designator":"2009-041A","name":"DEIMOS-1","alt_names":[],"object_type":"PAYLOAD","status":"ACTIVE","operator":null,"country":"SPN","launch_date":"2009-07-29","launch_site_code":"TYMSC","launch_vehicle":null,"mission":null,"orbit_class":"UNKNOWN","rcs_meters":0.226,"size_class":null,"mass_kg":null,"dimensions":null,"purposes":["earth_obs"],"wikipedia_slug":null,"has_3d_model":false,"image_url":null,"decayed_at":null,"tle_current":{"epoch":"2026-09-20T05:01:18.874272Z","epoch_age_seconds":39601,"freshness":"FRESH","line1":"1 35681U 09041A   26263.20924623  .00000481  00000+0  78043-4 0  9992","line2":"2 35681  97.7539  56.3961 0000498 137.6978 222.4270 14.75318797920896","mean_motion":14.75318797,"eccentricity":4.98e-5,"inclination_deg":97.7539,"raan_deg":56.3961,"arg_perigee_deg":137.6978,"mean_anomaly_deg":222.427,"bstar":7.8043e-5,"rev_number":92089,"period_min":97.606022706969,"perigee_km":643.78976564188,"apogee_km":644.48918437879,"semimajor_km":7022.2764750103,"source":"CELESTRAK","updated_at":"2026-09-20T09:00:34.586411Z"}}}